,,Stat5,,Stat1,,Stat2,,Stat3,,Stat4,,Wind1,,Wind1,
time,status,PA1M_AVG,status,PR1M_SUM,status,RH1M_AVG,status,SR1M_AVG,status,TA1M_AVG,status,W1dAve1m,status,W1sAve1m,
2000-04-23, 00:00:01,VALID,918.364,VALID,0,VALID,96.5453,VALID,0,VALID,19.8901,VALID,82,VALID,1.31816,
2000-04-23, 00:01:01,VALID,918.363,VALID,0,VALID,96.5351,VALID,0,VALID,19.8771,VALID,88,VALID,1.32053,
2000-04-23, 00:02:00,VALID,918.377,VALID,0,VALID,96.5364,VALID,-0.0169808,VALID,19.8511,VALID,86,VALID,1.24785,
2000-04-23, 00:03:00,VALID,918.368,VALID,0,VALID,96.6648,VALID,-0.0339617,VALID,19.825,VALID,90,VALID,0.976786,
2000-04-23, 00:04:01,VALID,918.372,VALID,0,VALID,96.7488,VALID,-0.0339617,VALID,19.8056,VALID,75,VALID,0.679087,
2000-04-23, 00:05:00,VALID,918.364,VALID,0,VALID,96.895,VALID,0,VALID,19.819,VALID,90,VALID,0.404541,
2000-04-23, 00:06:01,VALID,918.371,VALID,0,VALID,96.9331,VALID,0.0169808,VALID,19.8419,VALID,90,VALID,0.41913,
2000-04-23, 00:07:00,VALID,918.367,VALID,0,VALID,96.7564,VALID,-0.0509425,VALID,19.8545,VALID,90,VALID,0.432736,
2000-04-23, 00:08:00,VALID,918.359,VALID,0,VALID,96.7297,VALID,-0.0169808,VALID,19.8545,VALID,94,VALID,0.121595,
2000-04-23, 00:09:00,VALID,918.367,VALID,0,VALID,96.6025,VALID,-0.0169808,VALID,19.8612,VALID,61,VALID,0.109976,
2000-04-23, 00:10:00,VALID,918.348,VALID,0,VALID,96.5809,VALID,-0.0679233,VALID,19.8647,VALID,36,VALID,0,
2000-04-23, 00:11:00,VALID,918.332,VALID,0,VALID,96.6394,VALID,-0.0509425,VALID,19.8707,VALID,44,VALID,0,
2000-04-23, 00:12:00,VALID,918.289,VALID,0,VALID,96.6915,VALID,-0.0679233,VALID,19.9,VALID,44,VALID,0,
2000-04-23, 00:13:00,VALID,918.289,VALID,0,VALID,96.6419,VALID,-0.0339617,VALID,19.9132,VALID,47,VALID,0,
2000-04-23, 00:14:01,VALID,918.283,VALID,0,VALID,96.5237,VALID,-0.0169808,VALID,19.9224,VALID,81,VALID,0,
2000-04-23, 00:15:00,VALID,918.266,VALID,0,VALID,96.4754,VALID,-0.0169808,VALID,19.942,VALID,96,VALID,0,
2000-04-23, 00:16:01,VALID,918.268,VALID,0,VALID,96.3965,VALID,-0.0339617,VALID,19.941,VALID,96,VALID,0,
2000-04-23, 00:17:00,VALID,918.265,VALID,0,VALID,96.319,VALID,-0.0169808,VALID,19.9582,VALID,96,VALID,0,
2000-04-23, 00:18:00,VALID,918.256,VALID,0,VALID,96.3304,VALID,-0.0339617,VALID,19.9748,VALID,96,VALID,0,
2000-04-23, 00:19:00,VALID,918.238,VALID,0,VALID,96.2872,VALID,-0.0339617,VALID,19.9681,VALID,97,VALID,0,
2000-04-23, 00:20:00,VALID,918.232,VALID,0,VALID,96.2172,VALID,-0.0339617,VALID,19.9877,VALID,100,VALID,0,
2000-04-23, 00:21:01,VALID,918.215,VALID,0,VALID,96.1943,VALID,-0.0169808,VALID,19.9778,VALID,100,VALID,0,
2000-04-23, 00:22:01,VALID,918.191,VALID,0,VALID,96.1842,VALID,0,VALID,19.9773,VALID,100,VALID,0,
2000-04-23, 00:23:01,VALID,918.163,VALID,0,VALID,96.3253,VALID,-0.0169808,VALID,19.9902,VALID,100,VALID,0,
2000-04-23, 00:24:00,VALID,918.142,VALID,0,VALID,96.2694,VALID,-0.0509425,VALID,20.0066,VALID,100,VALID,0,
2000-04-23, 00:25:00,VALID,918.124,VALID,0,VALID,96.1829,VALID,-0.0509425,VALID,20.0002,VALID,100,VALID,0,
2000-04-23, 00:26:00,VALID,918.095,VALID,0,VALID,96.0964,VALID,0,VALID,19.9964,VALID,100,VALID,0,
2000-04-23, 00:27:00,VALID,918.06,VALID,0,VALID,96.0138,VALID,-0.0509425,VALID,20.0036,VALID,100,VALID,0,
2000-04-23, 00:28:01,VALID,918.028,VALID,0,VALID,95.8052,VALID,0,VALID,19.977,VALID,104,VALID,0,
2000-04-23, 00:29:00,VALID,918.01,VALID,0,VALID,95.8599,VALID,-0.0339617,VALID,19.9286,VALID,110,VALID,0,
2000-04-23, 00:30:00,VALID,917.996,VALID,0,VALID,95.9489,VALID,-0.0169808,VALID,19.9124,VALID,110,VALID,0,
2000-04-23, 00:31:01,VALID,917.981,VALID,0,VALID,95.9871,VALID,0,VALID,19.9095,VALID,110,VALID,0,
2000-04-23, 00:32:00,VALID,917.969,VALID,0,VALID,95.9909,VALID,0,VALID,19.8998,VALID,110,VALID,0,
2000-04-23, 00:33:00,VALID,917.944,VALID,0,VALID,96.0913,VALID,-0.0339617,VALID,19.8844,VALID,105,VALID,0,
2000-04-23, 00:34:01,VALID,917.927,VALID,0,VALID,95.9298,VALID,-0.0169808,VALID,19.8289,VALID,98,VALID,0,
2000-04-23, 00:35:01,VALID,917.94,VALID,0,VALID,95.8675,VALID,-0.0339617,VALID,19.8135,VALID,103,VALID,0,
2000-04-23, 00:36:01,VALID,917.937,VALID,0,VALID,95.8981,VALID,-0.0339617,VALID,19.7613,VALID,104,VALID,0,
2000-04-23, 00:37:01,VALID,917.93,VALID,0,VALID,96.0532,VALID,0.0339617,VALID,19.7372,VALID,108,VALID,0,
2000-04-23, 00:38:01,VALID,917.916,VALID,0,VALID,96.1028,VALID,0.0339617,VALID,19.704,VALID,110,VALID,0,
2000-04-23, 00:39:01,VALID,917.907,VALID,0,VALID,96.1308,VALID,0.0679233,VALID,19.6791,VALID,105,VALID,0,
2000-04-23, 00:40:01,VALID,917.896,VALID,0,VALID,96.2821,VALID,0.0339617,VALID,19.663,VALID,102,VALID,0,
2000-04-23, 00:41:01,VALID,917.879,VALID,0,VALID,96.3317,VALID,0.0679233,VALID,19.6535,VALID,103,VALID,0,
2000-04-23, 00:42:01,VALID,917.876,VALID,0,VALID,96.3991,VALID,0.0679233,VALID,19.6406,VALID,107,VALID,0,
2000-04-23, 00:43:01,VALID,917.856,VALID,0,VALID,96.4944,VALID,0.0849042,VALID,19.6239,VALID,100,VALID,0,
2000-04-23, 00:44:01,VALID,917.846,VALID,0,VALID,96.5351,VALID,0.0339617,VALID,19.6567,VALID,110,VALID,0,
2000-04-23, 00:45:01,VALID,917.846,VALID,0,VALID,96.2681,VALID,0.0849042,VALID,19.6726,VALID,117,VALID,0,
2000-04-23, 00:46:01,VALID,917.846,VALID,0,VALID,96.0061,VALID,0.0509425,VALID,19.6918,VALID,120,VALID,0,
2000-04-23, 00:47:01,VALID,917.845,VALID,0,VALID,95.865,VALID,0.0679233,VALID,19.7017,VALID,125,VALID,0,
2000-04-23, 00:48:01,VALID,917.844,VALID,0,VALID,95.687,VALID,0.0679233,VALID,19.7042,VALID,125,VALID,0,
2000-04-23, 00:49:01,VALID,917.839,VALID,0,VALID,95.6107,VALID,0.0679233,VALID,19.7243,VALID,124,VALID,0,
2000-04-23, 00:50:01,VALID,917.824,VALID,0,VALID,95.6056,VALID,0.101885,VALID,19.7502,VALID,122,VALID,0,
2000-04-23, 00:51:01,VALID,917.819,VALID,0,VALID,95.1936,VALID,0.0509425,VALID,19.7628,VALID,76,VALID,0.361275,
2000-04-23, 00:52:01,VALID,917.808,VALID,0,VALID,95.1173,VALID,-0.0169808,VALID,19.7966,VALID,86,VALID,0.407252,
2000-04-23, 00:53:01,VALID,917.806,VALID,0,VALID,95.2127,VALID,0,VALID,19.8287,VALID,88,VALID,0.434095,
2000-04-23, 00:54:01,VALID,917.814,VALID,0,VALID,94.8185,VALID,-0.0169808,VALID,19.8453,VALID,90,VALID,0.812946,
2000-04-23, 00:55:01,VALID,917.8,VALID,0,VALID,94.5654,VALID,-0.0509425,VALID,19.8652,VALID,90,VALID,0.583059,
2000-04-23, 00:56:01,VALID,917.793,VALID,0,VALID,94.3327,VALID,-0.0169808,VALID,19.8476,VALID,91,VALID,0.429087,
2000-04-23, 00:57:01,VALID,917.786,VALID,0,VALID,94.3086,VALID,-0.0169808,VALID,19.8416,VALID,92,VALID,0.41582,
2000-04-23, 00:58:01,VALID,917.781,VALID,0,VALID,94.3505,VALID,-0.0339617,VALID,19.8386,VALID,95,VALID,0.332348,
2000-04-23, 00:59:01,VALID,917.762,VALID,0,VALID,94.2221,VALID,-0.0509425,VALID,19.8322,VALID,95,VALID,0,
2000-04-23, 01:00:00,VALID,917.766,VALID,0,VALID,94.142,VALID,-0.0339617,VALID,19.8453,VALID,102,VALID,0.0206163,
2000-04-23, 01:01:00,VALID,917.752,VALID,0,VALID,93.8788,VALID,-0.0679233,VALID,19.8585,VALID,87,VALID,0.51543,
2000-04-23, 01:02:00,VALID,917.726,VALID,0,VALID,94.053,VALID,-0.0169808,VALID,19.8617,VALID,82,VALID,0.40625,
2000-04-23, 01:03:00,VALID,917.712,VALID,0,VALID,93.646,VALID,-0.0169808,VALID,19.8518,VALID,79,VALID,0.331931,
2000-04-23, 01:04:00,VALID,917.703,VALID,0,VALID,93.5685,VALID,-0.0339617,VALID,19.8516,VALID,75,VALID,0.518229,
2000-04-23, 01:05:00,VALID,917.679,VALID,0,VALID,93.3701,VALID,-0.0679233,VALID,19.8426,VALID,68,VALID,0.475446,
2000-04-23, 01:06:00,VALID,917.674,VALID,0,VALID,93.2023,VALID,0,VALID,19.8356,VALID,62,VALID,0.580529,
2000-04-23, 01:07:00,VALID,917.666,VALID,0,VALID,93.2404,VALID,0,VALID,19.8314,VALID,73,VALID,0.47574,
2000-04-23, 01:08:00,VALID,917.656,VALID,0,VALID,93.1628,VALID,0.0339617,VALID,19.8212,VALID,71,VALID,0.672492,
2000-04-23, 01:09:00,VALID,917.656,VALID,0,VALID,93.1997,VALID,0,VALID,19.7954,VALID,78,VALID,0.743707,
2000-04-23, 01:10:00,VALID,917.648,VALID,0,VALID,93.4299,VALID,0,VALID,19.7693,VALID,86,VALID,0.780165,
2000-04-23, 01:11:00,VALID,917.633,VALID,0,VALID,93.6104,VALID,0,VALID,19.7536,VALID,95,VALID,0.592601,
2000-04-23, 01:12:00,VALID,917.631,VALID,0,VALID,93.6778,VALID,0,VALID,19.7375,VALID,92,VALID,0.501056,
2000-04-23, 01:13:00,VALID,917.621,VALID,0,VALID,93.7414,VALID,0.0169808,VALID,19.7208,VALID,89,VALID,0.137821,
2000-04-23, 01:14:00,VALID,917.61,VALID,0,VALID,93.7084,VALID,0,VALID,19.695,VALID,75,VALID,0.03125,
2000-04-23, 01:15:00,VALID,917.6,VALID,0,VALID,93.5163,VALID,0.0339617,VALID,19.6853,VALID,48,VALID,0.659655,
2000-04-23, 01:16:00,VALID,917.583,VALID,0,VALID,93.3498,VALID,0.0169808,VALID,19.7049,VALID,42,VALID,0.421205,
2000-04-23, 01:17:00,VALID,917.576,VALID,0,VALID,93.4311,VALID,0.0339617,VALID,19.7146,VALID,346,VALID,0.358789,
2000-04-23, 01:18:00,VALID,917.56,VALID,0,VALID,93.6168,VALID,0,VALID,19.7375,VALID,340,VALID,0.361719,
2000-04-23, 01:19:00,VALID,917.56,VALID,0,VALID,93.6028,VALID,0.0339617,VALID,19.7405,VALID,331,VALID,0.161914,
2000-04-23, 01:20:00,VALID,917.546,VALID,0,VALID,93.6906,VALID,0.0169808,VALID,19.7507,VALID,331,VALID,0.30701,
2000-04-23, 01:21:00,VALID,917.55,VALID,0,VALID,94.0784,VALID,0.0509425,VALID,19.7437,VALID,327,VALID,0.0572917,
2000-04-23, 01:22:00,VALID,917.547,VALID,0,VALID,94.6201,VALID,-0.0169808,VALID,19.7208,VALID,326,VALID,0.334821,
2000-04-23, 01:23:00,VALID,917.529,VALID,0,VALID,95.1186,VALID,0.0169808,VALID,19.7084,VALID,325,VALID,0.281883,
2000-04-23, 01:24:00,VALID,917.528,VALID,0,VALID,95.6514,VALID,0.0169808,VALID,19.6883,VALID,323,VALID,0.267525,
2000-04-23, 01:25:00,VALID,917.529,VALID,0,VALID,95.9972,VALID,0,VALID,19.6821,VALID,323,VALID,0.127404,
2000-04-23, 01:26:00,VALID,917.52,VALID,0,VALID,96.2757,VALID,0.0339617,VALID,19.6796,VALID,323,VALID,0,
2000-04-23, 01:27:00,VALID,917.513,VALID,0,VALID,96.3558,VALID,0.0509425,VALID,19.6565,VALID,323,VALID,0,
2000-04-23, 01:28:00,VALID,917.492,VALID,0,VALID,96.4627,VALID,0.0679233,VALID,19.6498,VALID,323,VALID,0,
2000-04-23, 01:29:00,VALID,917.483,VALID,0,VALID,96.5161,VALID,0,VALID,19.6401,VALID,323,VALID,0,
2000-04-23, 01:30:00,VALID,917.465,VALID,0,VALID,96.5237,VALID,0,VALID,19.6441,VALID,323,VALID,0,
2000-04-23, 01:31:00,VALID,917.474,VALID,0,VALID,96.5873,VALID,0.0339617,VALID,19.6374,VALID,323,VALID,0,
2000-04-23, 01:32:00,VALID,917.454,VALID,0,VALID,96.6941,VALID,0.0169808,VALID,19.618,VALID,323,VALID,0,
2000-04-23, 01:33:00,VALID,917.424,VALID,0,VALID,96.7844,VALID,0.0339617,VALID,19.6147,VALID,323,VALID,0,
2000-04-23, 01:34:00,VALID,917.403,VALID,0,VALID,96.778,VALID,0.0169808,VALID,19.6147,VALID,338,VALID,0,
2000-04-23, 01:35:00,VALID,917.377,VALID,0,VALID,96.7271,VALID,0,VALID,19.6048,VALID,351,VALID,0,
2000-04-23, 01:36:00,VALID,917.366,VALID,0,VALID,96.7182,VALID,0,VALID,19.6147,VALID,353,VALID,0,
2000-04-23, 01:37:00,VALID,917.361,VALID,0,VALID,96.5008,VALID,0,VALID,19.5959,VALID,98,VALID,0,
2000-04-23, 01:38:00,VALID,917.347,VALID,0,VALID,96.2401,VALID,0.0339617,VALID,19.5561,VALID,103,VALID,0,
2000-04-23, 01:39:00,VALID,917.359,VALID,0,VALID,96.1219,VALID,0.0169808,VALID,19.5335,VALID,103,VALID,0,
2000-04-23, 01:40:00,VALID,917.366,VALID,0,VALID,96.0697,VALID,0.0339617,VALID,19.5047,VALID,103,VALID,0,
2000-04-23, 01:41:00,VALID,917.363,VALID,0,VALID,96.2401,VALID,0.0679233,VALID,19.4724,VALID,103,VALID,0,
2000-04-23, 01:42:00,VALID,917.346,VALID,0,VALID,96.2999,VALID,0.0169808,VALID,19.4532,VALID,103,VALID,0,
2000-04-23, 01:43:00,VALID,917.331,VALID,0,VALID,96.2045,VALID,0.0169808,VALID,19.4209,VALID,103,VALID,0,
2000-04-23, 01:44:00,VALID,917.31,VALID,0,VALID,96.1638,VALID,0,VALID,19.3919,VALID,96,VALID,0,
2000-04-23, 01:45:00,VALID,917.293,VALID,0,VALID,96.3228,VALID,0,VALID,19.3822,VALID,94,VALID,0,
2000-04-23, 01:46:00,VALID,917.265,VALID,0,VALID,95.762,VALID,0.0509425,VALID,19.3529,VALID,88,VALID,0.944912,
2000-04-23, 01:47:00,VALID,917.226,VALID,0,VALID,95.4644,VALID,0,VALID,19.3432,VALID,84,VALID,0.939303,
2000-04-23, 01:48:00,VALID,917.211,VALID,0,VALID,95.2991,VALID,0.0339617,VALID,19.3464,VALID,85,VALID,0.859575,
2000-04-23, 01:49:00,VALID,917.172,VALID,0,VALID,95.0817,VALID,0.0339617,VALID,19.3596,VALID,85,VALID,1.10848,
2000-04-23, 01:50:00,VALID,917.143,VALID,0,VALID,94.9812,VALID,0.0169808,VALID,19.379,VALID,97,VALID,0.925391,
2000-04-23, 01:51:00,VALID,917.125,VALID,0,VALID,94.8388,VALID,0.0169808,VALID,19.3725,VALID,102,VALID,1.14922,
2000-04-23, 01:52:00,VALID,917.101,VALID,0,VALID,94.7663,VALID,-0.0169808,VALID,19.3936,VALID,104,VALID,0.996484,
2000-04-23, 01:53:00,VALID,917.092,VALID,0,VALID,94.6799,VALID,-0.0169808,VALID,19.3966,VALID,102,VALID,1.16681,
2000-04-23, 01:54:00,VALID,917.079,VALID,0,VALID,94.6443,VALID,-0.0169808,VALID,19.3996,VALID,96,VALID,1.12847,
2000-04-23, 01:55:00,VALID,917.048,VALID,0,VALID,94.5463,VALID,-0.0169808,VALID,19.412,VALID,90,VALID,0.958705,
2000-04-23, 01:56:00,VALID,917.014,VALID,0,VALID,94.5069,VALID,-0.0339617,VALID,19.4381,VALID,84,VALID,0.78315,
2000-04-23, 01:57:00,VALID,916.988,VALID,0,VALID,94.2806,VALID,0,VALID,19.4381,VALID,74,VALID,0.664485,
2000-04-23, 01:58:00,VALID,916.959,VALID,0,VALID,94.2145,VALID,0,VALID,19.4545,VALID,78,VALID,0.708133,
2000-04-23, 01:59:00,VALID,916.94,VALID,0,VALID,94.1305,VALID,0,VALID,19.4644,VALID,74,VALID,0.702524,
2000-04-23, 02:00:00,VALID,916.924,VALID,0,VALID,94.0797,VALID,-0.0169808,VALID,19.4739,VALID,78,VALID,0.609821,
2000-04-23, 02:01:00,VALID,916.891,VALID,0,VALID,94.0161,VALID,0.0169808,VALID,19.4674,VALID,84,VALID,0.583265,
2000-04-23, 02:02:00,VALID,916.881,VALID,0,VALID,94.1394,VALID,-0.0169808,VALID,19.4709,VALID,83,VALID,0.467147,
2000-04-23, 02:03:00,VALID,916.863,VALID,0,VALID,94.1242,VALID,0,VALID,19.4739,VALID,83,VALID,0.318164,
2000-04-23, 02:04:00,VALID,916.833,VALID,0,VALID,94.0479,VALID,0,VALID,19.4512,VALID,42,VALID,0.309544,
2000-04-23, 02:05:00,VALID,916.812,VALID,0,VALID,93.8775,VALID,0,VALID,19.4537,VALID,77,VALID,0.270059,
2000-04-23, 02:06:00,VALID,916.827,VALID,0,VALID,93.9055,VALID,-0.0169808,VALID,19.4572,VALID,86,VALID,0.00325521,
2000-04-23, 02:07:00,VALID,916.826,VALID,0,VALID,93.7427,VALID,-0.0169808,VALID,19.4515,VALID,76,VALID,0.149609,
2000-04-23, 02:08:00,VALID,916.833,VALID,0,VALID,93.5596,VALID,0,VALID,19.4607,VALID,53,VALID,0.0574219,
2000-04-23, 02:09:00,VALID,916.817,VALID,0,VALID,93.8292,VALID,0,VALID,19.4868,VALID,85,VALID,0.196715,
2000-04-23, 02:10:00,VALID,916.803,VALID,0,VALID,94.0097,VALID,0,VALID,19.5158,VALID,98,VALID,0.174479,
2000-04-23, 02:11:00,VALID,916.811,VALID,0,VALID,94.0263,VALID,0,VALID,19.5293,VALID,98,VALID,0,
2000-04-23, 02:12:00,VALID,916.817,VALID,0,VALID,93.7745,VALID,0,VALID,19.5126,VALID,98,VALID,0,
2000-04-23, 02:13:00,VALID,916.838,VALID,0,VALID,93.8686,VALID,0,VALID,19.4997,VALID,98,VALID,0,
2000-04-23, 02:14:00,VALID,916.848,VALID,0,VALID,94.1776,VALID,0,VALID,19.487,VALID,98,VALID,0,
2000-04-23, 02:15:00,VALID,916.838,VALID,0,VALID,94.5222,VALID,0,VALID,19.4709,VALID,99,VALID,0,
2000-04-23, 02:16:00,VALID,916.827,VALID,0,VALID,94.3543,VALID,-0.0169808,VALID,19.449,VALID,114,VALID,0,
2000-04-23, 02:17:00,VALID,916.834,VALID,0,VALID,94.2857,VALID,0,VALID,19.3894,VALID,123,VALID,0,
2000-04-23, 02:18:00,VALID,916.85,VALID,0,VALID,94.189,VALID,0,VALID,19.3516,VALID,150,VALID,0,
2000-04-23, 02:19:00,VALID,916.878,VALID,0,VALID,94.4522,VALID,-0.0339617,VALID,19.3193,VALID,164,VALID,0,
2000-04-23, 02:20:00,VALID,916.907,VALID,0,VALID,94.7536,VALID,-0.0339617,VALID,19.2964,VALID,170,VALID,0,
2000-04-23, 02:21:00,VALID,916.927,VALID,0,VALID,94.807,VALID,-0.0169808,VALID,19.2676,VALID,207,VALID,0.103516,
2000-04-23, 02:22:00,VALID,916.959,VALID,0,VALID,94.835,VALID,-0.0169808,VALID,19.2517,VALID,235,VALID,0.314732,
2000-04-23, 02:23:00,VALID,916.976,VALID,0,VALID,94.9355,VALID,-0.0169808,VALID,19.2256,VALID,241,VALID,0.506641,
2000-04-23, 02:24:00,VALID,916.975,VALID,0,VALID,94.9914,VALID,-0.0169808,VALID,19.1901,VALID,240,VALID,0.351758,
2000-04-23, 02:25:00,VALID,916.953,VALID,0,VALID,95.1885,VALID,-0.0339617,VALID,19.1707,VALID,240,VALID,0,
2000-04-23, 02:26:00,VALID,916.933,VALID,0,VALID,95.2839,VALID,-0.0339617,VALID,19.1446,VALID,240,VALID,0,
2000-04-23, 02:27:00,VALID,916.927,VALID,0,VALID,95.3029,VALID,-0.0339617,VALID,19.1257,VALID,235,VALID,0,
2000-04-23, 02:28:00,VALID,916.917,VALID,0,VALID,95.4797,VALID,-0.0339617,VALID,19.09,VALID,234,VALID,0,
2000-04-23, 02:29:00,VALID,916.923,VALID,0,VALID,95.5954,VALID,0,VALID,19.077,VALID,223,VALID,0,
2000-04-23, 02:30:00,VALID,916.919,VALID,0,VALID,95.6692,VALID,0,VALID,19.0477,VALID,204,VALID,0,
2000-04-23, 02:31:00,VALID,916.904,VALID,0,VALID,95.7188,VALID,-0.0169808,VALID,19.0092,VALID,192,VALID,0,
2000-04-23, 02:32:00,VALID,916.893,VALID,0,VALID,95.8447,VALID,0,VALID,18.9601,VALID,184,VALID,0,
2000-04-23, 02:33:00,VALID,916.877,VALID,0,VALID,95.8536,VALID,0,VALID,18.958,VALID,185,VALID,0,
2000-04-23, 02:34:00,VALID,916.852,VALID,0,VALID,95.9489,VALID,0,VALID,18.961,VALID,191,VALID,0,
2000-04-23, 02:35:00,VALID,916.852,VALID,0,VALID,96.0074,VALID,0.0339617,VALID,18.9568,VALID,191,VALID,0,
2000-04-23, 02:36:00,VALID,916.856,VALID,0,VALID,96.043,VALID,0,VALID,18.9538,VALID,191,VALID,0,
2000-04-23, 02:37:00,VALID,916.868,VALID,0,VALID,96.1015,VALID,0.0169808,VALID,18.9573,VALID,191,VALID,0,
2000-04-23, 02:38:00,VALID,916.87,VALID,0,VALID,96.0685,VALID,0,VALID,18.9573,VALID,191,VALID,0,
2000-04-23, 02:39:00,VALID,916.87,VALID,0,VALID,96.0824,VALID,0,VALID,18.9442,VALID,191,VALID,0,
2000-04-23, 02:40:00,VALID,916.86,VALID,0,VALID,96.0761,VALID,0,VALID,18.9449,VALID,191,VALID,0,
2000-04-23, 02:41:00,VALID,916.849,VALID,0,VALID,95.9947,VALID,0,VALID,18.9315,VALID,191,VALID,0,
2000-04-23, 02:42:00,VALID,916.854,VALID,0,VALID,95.9527,VALID,0,VALID,18.9086,VALID,191,VALID,0,
2000-04-23, 02:43:00,VALID,916.845,VALID,0,VALID,95.9171,VALID,-0.0339617,VALID,18.8798,VALID,191,VALID,0,
2000-04-23, 02:44:00,VALID,916.855,VALID,0,VALID,96.0227,VALID,-0.0169808,VALID,18.8512,VALID,191,VALID,0,
2000-04-23, 02:45:00,VALID,916.848,VALID,0,VALID,96.2299,VALID,0,VALID,18.8281,VALID,191,VALID,0,
2000-04-23, 02:46:00,VALID,916.84,VALID,0,VALID,96.4372,VALID,-0.0169808,VALID,18.8258,VALID,207,VALID,0,
2000-04-23, 02:47:00,VALID,916.813,VALID,0,VALID,96.5949,VALID,-0.0169808,VALID,18.8127,VALID,204,VALID,0,
2000-04-23, 02:48:00,VALID,916.788,VALID,0,VALID,96.7475,VALID,0,VALID,18.7933,VALID,203,VALID,0,
2000-04-23, 02:49:00,VALID,916.76,VALID,0,VALID,96.8022,VALID,0,VALID,18.7928,VALID,196,VALID,0,
2000-04-23, 02:50:00,VALID,916.724,VALID,0,VALID,96.7971,VALID,-0.0339617,VALID,18.7873,VALID,196,VALID,0,
2000-04-23, 02:51:00,VALID,916.705,VALID,0,VALID,96.7717,VALID,-0.0169808,VALID,18.7737,VALID,196,VALID,0,
2000-04-23, 02:52:00,VALID,916.696,VALID,0,VALID,96.8187,VALID,0,VALID,18.7601,VALID,196,VALID,0,
2000-04-23, 02:53:00,VALID,916.67,VALID,0,VALID,96.8276,VALID,0.0169808,VALID,18.7693,VALID,196,VALID,0,
2000-04-23, 02:54:00,VALID,916.678,VALID,0,VALID,96.8479,VALID,0.0169808,VALID,18.7827,VALID,196,VALID,0,
2000-04-23, 02:55:00,VALID,916.673,VALID,0,VALID,96.9306,VALID,0.0169808,VALID,18.8018,VALID,196,VALID,0,
2000-04-23, 02:56:00,VALID,916.666,VALID,0,VALID,96.9395,VALID,0.0169808,VALID,18.7986,VALID,196,VALID,0,
2000-04-23, 02:57:00,VALID,916.679,VALID,0,VALID,96.9395,VALID,0,VALID,18.8184,VALID,196,VALID,0,
2000-04-23, 02:58:00,VALID,916.679,VALID,0,VALID,96.9052,VALID,0,VALID,18.8279,VALID,171,VALID,0,
2000-04-23, 02:59:00,VALID,916.696,VALID,0,VALID,96.8073,VALID,0.0339617,VALID,18.8244,VALID,169,VALID,0,
2000-04-23, 03:00:00,VALID,916.698,VALID,0,VALID,96.6992,VALID,0,VALID,18.8542,VALID,169,VALID,0,
2000-04-23, 03:01:00,VALID,916.708,VALID,0,VALID,96.5479,VALID,0.0509425,VALID,18.8336,VALID,168,VALID,0,
2000-04-23, 03:02:00,VALID,916.7,VALID,0,VALID,96.4652,VALID,0.0169808,VALID,18.8503,VALID,165,VALID,0,
2000-04-23, 03:03:00,VALID,916.679,VALID,0,VALID,96.3266,VALID,0.0509425,VALID,18.8636,VALID,163,VALID,0,
2000-04-23, 03:04:00,VALID,916.658,VALID,0,VALID,96.174,VALID,0,VALID,18.8599,VALID,150,VALID,0,
2000-04-23, 03:05:00,VALID,916.634,VALID,0,VALID,96.0952,VALID,0,VALID,18.8858,VALID,147,VALID,0,
2000-04-23, 03:06:00,VALID,916.629,VALID,0,VALID,96.0672,VALID,-0.0169808,VALID,18.8863,VALID,147,VALID,0,
2000-04-23, 03:07:00,VALID,916.617,VALID,0,VALID,96.0379,VALID,0.0169808,VALID,18.883,VALID,124,VALID,0,
2000-04-23, 03:08:00,VALID,916.625,VALID,0,VALID,96.0824,VALID,0,VALID,18.8759,VALID,108,VALID,0,
2000-04-23, 03:09:00,VALID,916.617,VALID,0,VALID,96.1498,VALID,0.0169808,VALID,18.8865,VALID,93,VALID,0,
2000-04-23, 03:10:00,VALID,916.614,VALID,0,VALID,96.1804,VALID,0.0169808,VALID,18.886,VALID,89,VALID,0,
2000-04-23, 03:11:00,VALID,916.616,VALID,0,VALID,96.1371,VALID,0.0509425,VALID,18.8982,VALID,89,VALID,0,
2000-04-23, 03:12:00,VALID,916.609,VALID,0,VALID,96.0888,VALID,0.0339617,VALID,18.9119,VALID,71,VALID,0,
2000-04-23, 03:13:00,VALID,916.592,VALID,0,VALID,96.0507,VALID,0,VALID,18.9278,VALID,70,VALID,0,
2000-04-23, 03:14:00,VALID,916.587,VALID,0,VALID,96.0621,VALID,0,VALID,18.9504,VALID,70,VALID,0,
2000-04-23, 03:15:00,VALID,916.573,VALID,0,VALID,95.804,VALID,0.0169808,VALID,18.9603,VALID,76,VALID,0.000600962,
2000-04-23, 03:16:00,VALID,916.573,VALID,0,VALID,95.3169,VALID,0.0169808,VALID,18.9896,VALID,119,VALID,0.402845,
2000-04-23, 03:17:00,VALID,916.572,VALID,0,VALID,95.1389,VALID,0.0169808,VALID,19.0157,VALID,138,VALID,0.0196429,
2000-04-23, 03:18:00,VALID,916.556,VALID,0,VALID,95.0461,VALID,0.0169808,VALID,19.0281,VALID,136,VALID,0,
2000-04-23, 03:19:00,VALID,916.543,VALID,0,VALID,94.9176,VALID,0.0339617,VALID,19.0314,VALID,136,VALID,0,
2000-04-23, 03:20:00,VALID,916.539,VALID,0,VALID,95.088,VALID,0.0169808,VALID,19.0443,VALID,136,VALID,0.436061,
2000-04-23, 03:21:00,VALID,916.533,VALID,0,VALID,94.999,VALID,0.0339617,VALID,19.0378,VALID,133,VALID,0.62066,
2000-04-23, 03:22:00,VALID,916.544,VALID,0,VALID,94.7167,VALID,0.0169808,VALID,19.0346,VALID,129,VALID,0.681207,
2000-04-23, 03:23:00,VALID,916.579,VALID,0,VALID,94.5718,VALID,0.0169808,VALID,19.0634,VALID,129,VALID,0.133961,
2000-04-23, 03:24:00,VALID,916.592,VALID,0,VALID,94.2768,VALID,0.0169808,VALID,19.0671,VALID,122,VALID,0,
2000-04-23, 03:25:00,VALID,916.588,VALID,0,VALID,94.1788,VALID,0,VALID,19.0967,VALID,122,VALID,0,
2000-04-23, 03:26:00,VALID,916.616,VALID,0,VALID,94.0072,VALID,0,VALID,19.1384,VALID,118,VALID,0.242588,
2000-04-23, 03:27:00,VALID,916.614,VALID,0,VALID,93.9093,VALID,0.0169808,VALID,19.1737,VALID,111,VALID,0.305689,
2000-04-23, 03:28:00,VALID,916.629,VALID,0,VALID,93.7668,VALID,0.0169808,VALID,19.1834,VALID,100,VALID,0.598214,
2000-04-23, 03:29:00,VALID,916.629,VALID,0,VALID,93.7732,VALID,0,VALID,19.1735,VALID,101,VALID,0.919141,
2000-04-23, 03:30:00,VALID,916.626,VALID,0,VALID,93.4388,VALID,0.0339617,VALID,19.1737,VALID,94,VALID,1.06387,
2000-04-23, 03:31:00,VALID,916.612,VALID,0,VALID,93.3269,VALID,0.0339617,VALID,19.1861,VALID,92,VALID,0.984766,
2000-04-23, 03:32:00,VALID,916.616,VALID,0,VALID,93.2162,VALID,0.0169808,VALID,19.2125,VALID,80,VALID,0.956926,
2000-04-23, 03:33:00,VALID,916.604,VALID,0,VALID,93.1501,VALID,0.0169808,VALID,19.212,VALID,76,VALID,0.758898,
2000-04-23, 03:34:00,VALID,916.587,VALID,0,VALID,92.4456,VALID,0,VALID,19.2507,VALID,77,VALID,1.07344,
2000-04-23, 03:35:00,VALID,916.573,VALID,0,VALID,92.3681,VALID,0.0169808,VALID,19.2989,VALID,83,VALID,0.923564,
2000-04-23, 03:36:00,VALID,916.549,VALID,0,VALID,92.1786,VALID,0.0339617,VALID,19.3188,VALID,76,VALID,0.883235,
2000-04-23, 03:37:00,VALID,916.542,VALID,0,VALID,91.9663,VALID,-0.0679233,VALID,19.3521,VALID,76,VALID,0.808093,
2000-04-23, 03:38:00,VALID,916.545,VALID,0,VALID,91.6662,VALID,-0.101885,VALID,19.3851,VALID,75,VALID,0.948518,
2000-04-23, 03:39:00,VALID,916.53,VALID,0,VALID,91.3254,VALID,-0.0679233,VALID,19.4366,VALID,71,VALID,0.831696,
2000-04-23, 03:40:00,VALID,916.53,VALID,0,VALID,91.0685,VALID,-0.0679233,VALID,19.4786,VALID,71,VALID,0.722039,
2000-04-23, 03:41:00,VALID,916.528,VALID,0,VALID,91.01,VALID,-0.101885,VALID,19.5101,VALID,82,VALID,0.529848,